Regional Weather Roundup
Issued by NWS Austin/San Antonio, TX

Home | Current Version | Previous Version | Text Only | Print | Product List | Glossary On
Versions: 1 2 3 4 5 6 7 8 9 10 11 12 13 14 15 16 17 18 19 20 21 22 23 24 25 26 27 28 29 30 31 32 33 34 35 36 37 38 39 40 41 42 43 44 45 46 47 48 49 50
000
ASUS44 KEWX 280211
RWREWX
SOUTH TEXAS REGIONAL WEATHER ROUNDUP
NATIONAL WEATHER SERVICE AUSTIN/SAN ANTONIO TX
900 PM CDT WED MAY 27 2020

NOTE: "FAIR" INDICATED FEW OR NO CLOUDS BELOW 12,000 FEET WITH NO
SIGNIFICANT WEATHER AND/OR OBSTRUCTIONS TO VISIBILITY.

* - THESE STATIONS ARE NOT NWS OR FAA STATIONS...AND ARE NOT SUBJECT
    TO NWS AND FAA QUALITY CONTROL.

TXZ171-172-183>190-280300-
TEXAS HILL COUNTRY AND EDWARDS PLATEAU

CITY           SKY/WX    TMP DP  RH WIND       PRES   REMARKS
JUNCTION       CLOUDY    68  65  90 S7        29.88R
*LLANO         CLOUDY    68  66  94 SE3       29.89R
BURNET         CLOUDY    66  62  87 E8        29.88R
*HORSESHOE BAY CLOUDY    66  64  94 CALM      29.88R
*LAGO VISTA    CLOUDY    65  64  96 E10G17    29.87R
*KERRVILLE     TSTM      64  61  90 W9        29.85F
*FREDERICKSBRG CLOUDY    64  62  95 N8        29.86F
*ROCKSPRINGS   CLOUDY    82  61  47 S8        29.88R
*BOERNE        CLOUDY    72  59  64 SE16G25   29.86F
HONDO          MOCLDY    83  66  56 SE8       29.80R
*UVALDE          N/A     81  67  61 SE7       29.79R
DEL RIO        CLEAR     92  65  40 SE12      29.72R HX  94
*LAUGHLIN AFB  CLEAR     88  66  48 E10       29.73R HX  90
*SPOFFORD      NOT AVBL
*EAGLE PASS    CLEAR     88  66  48 SE10      29.74R HX  90
CARRIZO SPRGS  CLEAR     86  66  51 SE5       29.73R
$$

TXZ173-191>194-202-209-217>225-228-280300-
CENTRAL AND SOUTH CENTRAL TEXAS

CITY           SKY/WX    TMP DP  RH WIND       PRES   REMARKS
GEORGETOWN     CLOUDY    68  65  90 S7        29.87R
*TAYLOR        CLOUDY    67  64  89 SE9       29.87R
AUSTIN/BERGSTM CLOUDY    68  65  90 E8G20     29.84R
AUSTIN/MABRY   CLOUDY    68  64  87 E6G18     29.86S
*PFLUGERVILLE  CLOUDY    66  64  94 SE8       29.86F
SAN MARCOS     LGT RAIN  70  67  90 E9        29.82S
NEW BRAUNFELS  RAIN      78  68  71 E18G24    29.84R
*RANDOLPH AFB  TSTM      82  69  64 E9        29.84R
*SEGUIN        LGT RAIN  79  68  69 N17       29.92R
SAN ANTONIO    HAIL      67  64  90 N30G66    29.86R VSB 1/2
STINSON FIELD  CLOUDY    82  68  62 SE9       29.78R
*KELLY FIELD   CLOUDY    86  68  54 NE13      29.83
*PLEASANTON    CLOUDY    85  69  59 E6        29.80R
*KENEDY        CLOUDY    82  72  70 E10       29.82R
*LA GRANGE     CLOUDY    74  67  77 NE3       29.90R
*GIDDINGS      RAIN      71  63  76 NE9G23    29.94R
*GONZALES      CLOUDY    74  67  80 SE13G22   29.81F
$$

TXZ163>164-176>182-195>201-210>213-226-227-235-280300-
SOUTHEAST TEXAS

CITY           SKY/WX    TMP DP  RH WIND       PRES   REMARKS
COLLEGE STN    LGT RAIN  66  63  90 SE12G25   29.87S
*BRYAN         DRIZZLE   66  66 100 S9G23     29.90R
*CALDWELL      NOT AVBL
*CROCKETT      NOT AVBL
*BRENHAM       TSTM      66  65  97 N14G33    30.04R VSB 1/2
HUNTSVILLE     LGT RAIN  68  63  84 S7        29.92R
CONROE         HVY RAIN  66  64  93 W9        29.95R FOG
HOUSTON BUSH   CLOUDY    68  63  84 S12       29.88F
HOUSTON HOBBY  MOCLDY    72  66  81 E9        29.88F
*HOUSTON SW AP MOCLDY    67  66  97 E6        29.88F
PEARLAND       MOCLDY    70  64  81 E5        29.90R
HOUSTON HOOKS  MOCLDY    68  62  81 N13G18    29.92R
ELLINGTON FLD  MOCLDY    70  66  88 NE3       29.88S
SUGAR LAND     MOCLDY    70  66  87 E12       29.87F
*HOUSTON EXEC  MOCLDY    70  64  83 E6G12     29.90R
*CLEVELAND MUN TSTM      66  64  94 S3        29.92R
*WHARTON       CLEAR     67  62  84 E7        29.86F
*COLUMBUS      FAIR      67  64  91 NE3       29.89R
*EAGLE LAKE    CLOUDY    69  65  88 E7        29.87
$$

TXZ214>216-236>238-280300-
THE UPPER TEXAS COAST

CITY           SKY/WX    TMP DP  RH WIND       PRES   REMARKS
*ORANGE        PTCLDY    70  63  78 S3        29.91R
PORT ARTHUR    PTCLDY    67  65  93 S13       29.88R
GALVESTON      PTCLDY    75  68  78 E9        29.89S
ANGLETON       CLEAR     70  66  87 E6        29.87F
*BAY CITY      CLEAR     71  67  88 E3        29.87S
PALACIOS       CLEAR     76  68  76 NE10G24   29.85S
$$

TXZ229>234-239>247-280300-
TEXAS COASTAL BEND AND RIO GRANDE PLAINS

CITY           SKY/WX    TMP DP  RH WIND       PRES   REMARKS
VICTORIA       CLEAR     78  70  76 SE13      29.82F
*BEEVILLE      CLEAR     81  75  82 E10G17    29.80R
ROCKPORT       CLEAR     80  73  79 SE17      29.83R
*PORT ARANSAS  CLEAR     81  75  82 E16       29.84R
*PORT LAVACA   CLEAR     81  74  80 SE10      29.84S
*INGLESIDE     CLEAR     80  76  85 SE13      29.82R
CORPUS CHRISTI PTCLDY    78  72  81 SE12      29.80R
CORPUS NAS     PTCLDY    80  76  87 SE16      29.81R
*ROBSTOWN      CLEAR     78  70  75 SE10      29.81R
ALICE          CLEAR     82  74  76 SE12      29.78R
KINGSVILLE NAS PTCLDY    82  69  64 SE8       29.79R
COTULLA        CLEAR     86  70  58 SE8       29.74S HX  90
LAREDO         CLEAR     87  71  58 SE13      29.74S HX  93
$$

TXZ248>255-280300-
DEEP SOUTH TEXAS

CITY           SKY/WX    TMP DP  RH WIND       PRES   REMARKS
BROWNSVILLE    CLEAR     81  71  71 SE9       29.80R
PORT ISABEL    CLEAR     81  71  71 SE9       29.80R
HARLINGEN      CLEAR     79  67  66 SE7       29.79R
*HEBBRONVILLE  CLEAR     82  68  62 S6        29.80R
MCALLEN        CLEAR     83  69  62 SE7       29.79R
*WESLACO       PTCLDY    83  67  56 SE5       29.79
FALFURRIAS     NOT AVBL
EDINBURG       CLEAR     80  68  67 SE6       29.79R
*ZAPATA        NOT AVBL
$$

TXZ213>215-236>238-242>244-246-247-251-254-255-280300-
CMAN STATIONS

STATION/POSITION TIME  TEMP    WIND        PRES    WAVE
                       AIR SEA DIR/SP/G            HT/PER
                 (UTC) (F)     (DEG/KT/KT) (MB)    (FT/S)
SABINE PASS      0130   71 83  180/ 10/ 13 1014.0
NORTH JETTY/GLS  0118   74 82   90/ 21/ 24 1010.4
EAGLE POINT      0130   75 81  100/ 13/ 16 1011.3
MORGANS POINT    0130   73 82   90/ 11/ 15 1012.0
PORT O`CONNOR    0130   80 86  110/ 14/ 16 1010.5
PORT ARANSAS     0200   80 83  100/ 18/ 20 1009.9
MALAQUITE BEACH  0130   81 91  110/ 18/ 20 1009.0
BAFFIN BAY       0130   81 86  120/ 14/ 18 1009.3
PORT ISABEL      0130   82 82  160/ 10/ 12 1011.0
$$



USA.gov is the U.S. government's official web portal to all federal, state and local government web resources and services.